This demonstration page uses our WeatherBlox Daily Observations layout. Learn more.

Left ArrowRight Arrow

36.17497, -115.13722

Hourly Observations for May 25, 2016

Temp ( °F °C ) Dew Point ( °F °C ) Humidity (%) Winds ( mph kmh ) Pressure ( in mb ) Visibility ( mi km ) Precip ( " mm )
12:53 am 00:53 Clear 68 20 33 0.6 27 27 WSW 8 13 29.88 1012 10 16 N/A
1:53 am 01:53 Clear 65 18.3 33 0.6 31 31 SE 9 15 29.89 1012 10 16 N/A
2:53 am 02:53 Clear 65 18.3 33 0.6 31 31 VRB 3 6 29.89 1012 10 16 N/A
3:53 am 03:53 Clear 64 17.8 33 0.6 32 32 SSE 6 9 29.90 1013 10 16 N/A
4:53 am 04:53 Clear 60 15.6 34 1.1 38 38 N 3 6 29.91 1013 10 16 N/A
5:53 am 05:53 Sunny 59 15 34 1.1 39 39 N 3 6 29.92 1013 10 16 N/A
6:53 am 06:53 Sunny 63 17.2 33 0.6 33 33 NNE 5 7 29.94 1014 10 16 N/A
7:53 am 07:53 Sunny 65 18.3 35 1.7 33 33 N N/A 29.96 1015 10 16 N/A
8:53 am 08:53 Sunny 68 20 36 2.2 31 31 ESE 5 7 29.96 1015 10 16 N/A
9:53 am 09:53 Sunny 70 21.1 35 1.7 28 28 VRB 5 7 29.96 1014 10 16 N/A
10:53 am 10:53 Sunny 72 22.2 34 1.1 25 25 SSE 7 11 29.95 1014 10 16 N/A
11:53 am 11:53 Sunny 73 22.8 34 1.1 24 24 S 7 11 29.94 1014 10 16 N/A
12:53 pm 12:53 Mostly Sunny 74 23.3 31 -0.6 20 20 VRB 3 6 29.93 1013 10 16 N/A
1:53 pm 13:53 Sunny 79 26.1 27 -2.8 15 15 SE 16 26 29.90 1013 10 16 N/A
2:53 pm 14:53 Sunny 78 25.6 27 -2.8 15 15 SSE 8 13 29.88 1012 10 16 N/A
3:53 pm 15:53 Sunny 79 26.1 27 -2.8 15 15 N N/A 29.85 1011 10 16 N/A
4:53 pm 16:53 Sunny 79 26.1 24 -4.4 13 13 SSE 7 11 29.84 1011 10 16 N/A
5:53 pm 17:53 Partly Cloudy 79 26.1 26 -3.3 14 14 SSW 18 30 29.84 1011 10 16 N/A
6:11 pm 18:11 Partly Cloudy 76 24.4 32 undefined 20 20 W 22 35 29.71 1006 10 16 N/A
6:53 pm 18:53 Sunny 76 24.4 30 -1.1 18 18 W 15 24 29.84 1011 10 16 N/A
7:53 pm 19:53 Clear 75 23.9 30 -1.1 19 19 W 8 13 29.86 1011 10 16 N/A
8:53 pm 20:53 Clear 70 21.1 36 2.2 29 29 NNW 24 39 29.88 1012 10 16 N/A
9:53 pm 21:53 Clear 68 20 36 2.2 31 31 NNW 21 33 29.90 1013 10 16 N/A
10:53 pm 22:53 Clear 68 20 36 2.2 31 31 NNW 18 30 29.91 1013 10 16 N/A
11:53 pm 23:53 Clear 69 20.6 35 1.7 29 29 NW 16 26 29.89 1012 10 16 N/A

Powered by AerisWeather